Year,Month,Day,Hour,Minute,Value (Times are PST for temperature in C)
2017,04,02,08,03,4.70
2017,04,02,08,04,4.80
2017,04,02,08,05,4.90
2017,04,02,08,06,5.00
2017,04,02,08,07,5.00
2017,04,02,08,08,5.10
2017,04,02,08,09,5.20
2017,04,02,08,10,5.20
2017,04,02,08,11,5.30
2017,04,02,08,12,5.30
2017,04,02,08,13,5.40
2017,04,02,08,14,5.50
2017,04,02,08,15,5.60
2017,04,02,08,16,5.70
2017,04,02,08,17,5.80
2017,04,02,08,18,5.90
2017,04,02,08,19,6.00
2017,04,02,08,20,6.00
2017,04,02,08,21,6.10
2017,04,02,08,22,6.20
2017,04,02,08,23,6.30
2017,04,02,08,24,6.30
2017,04,02,08,25,6.30
2017,04,02,08,26,6.30
2017,04,02,08,27,6.40
2017,04,02,08,28,6.40
2017,04,02,08,29,6.40
2017,04,02,08,30,6.50
2017,04,02,08,31,6.50
2017,04,02,08,32,6.60
2017,04,02,08,33,6.70
2017,04,02,08,34,6.70
2017,04,02,08,35,6.80
2017,04,02,08,36,6.80
2017,04,02,08,37,6.90
2017,04,02,08,38,6.90
2017,04,02,08,39,7.00
2017,04,02,08,40,7.10
2017,04,02,08,41,7.10
2017,04,02,08,42,7.10
2017,04,02,08,43,7.20
2017,04,02,08,44,7.20
2017,04,02,08,45,7.20
2017,04,02,08,46,7.30
2017,04,02,08,47,7.30
2017,04,02,08,48,7.30
2017,04,02,08,49,7.30
2017,04,02,08,50,7.40
2017,04,02,08,51,7.40
2017,04,02,08,52,7.40
2017,04,02,08,53,7.40
2017,04,02,08,54,7.50
2017,04,02,08,55,7.50
2017,04,02,08,56,7.50
2017,04,02,08,57,7.50
2017,04,02,08,58,7.60
2017,04,02,08,59,7.60
2017,04,02,09,00,7.60
2017,04,02,09,01,7.70
2017,04,02,09,02,7.70
2017,04,02,09,03,7.70
2017,04,02,09,04,7.80
2017,04,02,09,05,7.80
2017,04,02,09,06,7.90
2017,04,02,09,07,7.90
2017,04,02,09,08,7.90
2017,04,02,09,09,7.90
2017,04,02,09,10,8.00
2017,04,02,09,11,8.00
2017,04,02,09,12,8.10
2017,04,02,09,13,8.10
2017,04,02,09,14,8.10
2017,04,02,09,15,8.20
2017,04,02,09,16,8.20
2017,04,02,09,17,8.20
2017,04,02,09,18,8.30
2017,04,02,09,19,8.30
2017,04,02,09,20,8.30
2017,04,02,09,21,8.30
2017,04,02,09,22,8.30
2017,04,02,09,23,8.30
2017,04,02,09,24,8.30
2017,04,02,09,25,8.30
2017,04,02,09,26,8.30
2017,04,02,09,27,8.30
2017,04,02,09,28,8.30
2017,04,02,09,29,8.30
2017,04,02,09,30,8.30
2017,04,02,09,31,8.30
2017,04,02,09,32,8.30
2017,04,02,09,33,8.30
2017,04,02,09,34,8.30
2017,04,02,09,35,8.20
2017,04,02,09,36,8.20
2017,04,02,09,37,8.20
2017,04,02,09,38,8.20
2017,04,02,09,39,8.20
2017,04,02,09,40,8.20
2017,04,02,09,41,8.20
2017,04,02,09,42,8.20
2017,04,02,09,43,8.20
2017,04,02,09,44,8.20
2017,04,02,09,45,8.20
2017,04,02,09,46,8.30
2017,04,02,09,47,8.30
2017,04,02,09,48,8.40
2017,04,02,09,49,8.40
2017,04,02,09,50,8.40
2017,04,02,09,51,8.40
2017,04,02,09,52,8.50
2017,04,02,09,53,8.50
2017,04,02,09,54,8.60
2017,04,02,09,55,8.60
2017,04,02,09,56,8.60
2017,04,02,09,57,8.70
2017,04,02,09,58,8.70
2017,04,02,09,59,8.70
2017,04,02,10,00,8.70
2017,04,02,10,01,8.70
2017,04,02,10,02,8.80
2017,04,02,10,03,8.80
2017,04,02,10,04,8.80
2017,04,02,10,05,8.80
2017,04,02,10,06,8.80
2017,04,02,10,07,8.80
2017,04,02,10,08,8.80
2017,04,02,10,09,8.80
2017,04,02,10,10,8.80
2017,04,02,10,11,8.80
2017,04,02,10,12,8.80
2017,04,02,10,13,8.80
2017,04,02,10,14,8.80
2017,04,02,10,15,8.80
2017,04,02,10,16,8.90
2017,04,02,10,17,8.90
2017,04,02,10,18,9.00
2017,04,02,10,19,9.00
2017,04,02,10,20,9.10
2017,04,02,10,21,9.10
2017,04,02,10,22,9.10
2017,04,02,10,23,9.00
2017,04,02,10,24,9.00
2017,04,02,10,25,8.90
2017,04,02,10,26,9.00
2017,04,02,10,27,9.10
2017,04,02,10,28,9.20
2017,04,02,10,29,9.20
2017,04,02,10,30,9.20
2017,04,02,10,31,9.20
2017,04,02,10,32,9.20
2017,04,02,10,33,9.20
2017,04,02,10,34,9.20
2017,04,02,10,35,9.10
2017,04,02,10,36,9.10
2017,04,02,10,37,9.10
2017,04,02,10,38,9.10
2017,04,02,10,39,9.10
2017,04,02,10,40,9.10
2017,04,02,10,41,9.10
2017,04,02,10,42,9.10
2017,04,02,10,43,9.10
2017,04,02,10,44,9.10
2017,04,02,10,45,9.10
2017,04,02,10,46,9.20
2017,04,02,10,47,9.20
2017,04,02,10,48,9.20
2017,04,02,10,49,9.20
2017,04,02,10,50,9.20
2017,04,02,10,51,9.20
2017,04,02,10,52,9.30
2017,04,02,10,53,9.30
2017,04,02,10,54,9.40
2017,04,02,10,55,9.40
2017,04,02,10,56,9.40
2017,04,02,10,57,9.40
2017,04,02,10,58,9.30
2017,04,02,10,59,9.30
2017,04,02,11,00,9.40
2017,04,02,11,01,9.40
2017,04,02,11,02,9.50
2017,04,02,11,03,9.60
2017,04,02,11,04,9.60
2017,04,02,11,05,9.70
2017,04,02,11,06,9.70
2017,04,02,11,07,9.70
2017,04,02,11,08,9.60
2017,04,02,11,09,9.60
2017,04,02,11,10,9.60
2017,04,02,11,11,9.70
2017,04,02,11,12,9.70
2017,04,02,11,13,9.80
2017,04,02,11,14,9.70
2017,04,02,11,15,9.60
2017,04,02,11,16,9.60
2017,04,02,11,17,9.60
2017,04,02,11,18,9.60
2017,04,02,11,19,9.60
2017,04,02,11,20,9.60
2017,04,02,11,21,9.70
2017,04,02,11,22,9.70
2017,04,02,11,23,9.80
2017,04,02,11,24,9.80
2017,04,02,11,25,9.90
2017,04,02,11,26,9.90
2017,04,02,11,27,9.90
2017,04,02,11,28,10.00
2017,04,02,11,29,10.00
2017,04,02,11,30,10.20
2017,04,02,11,31,10.20
2017,04,02,11,32,10.20
2017,04,02,11,33,10.20
2017,04,02,11,34,10.30
2017,04,02,11,35,10.30
2017,04,02,11,36,10.30
2017,04,02,11,37,10.30
2017,04,02,11,38,10.30
2017,04,02,11,39,10.30
2017,04,02,11,40,10.30
2017,04,02,11,41,10.40
2017,04,02,11,42,10.40
2017,04,02,11,43,10.40
2017,04,02,11,44,10.30
2017,04,02,11,45,10.30
2017,04,02,11,46,10.40
2017,04,02,11,47,10.50
2017,04,02,11,48,10.50
2017,04,02,11,49,10.60
2017,04,02,11,50,10.60
2017,04,02,11,51,10.70
2017,04,02,11,52,10.70
2017,04,02,11,53,10.60
2017,04,02,11,54,10.60
2017,04,02,11,55,10.50
2017,04,02,11,56,10.60
2017,04,02,11,57,10.60
2017,04,02,11,58,10.60
2017,04,02,11,59,10.60
2017,04,02,12,00,10.60
2017,04,02,12,01,10.60
2017,04,02,12,02,10.60
2017,04,02,12,03,10.60
2017,04,02,12,04,10.60
2017,04,02,12,05,10.50
2017,04,02,12,06,10.50
2017,04,02,12,07,10.50
2017,04,02,12,08,10.40
2017,04,02,12,09,10.40
2017,04,02,12,10,10.40
2017,04,02,12,11,10.40
2017,04,02,12,12,10.50
2017,04,02,12,13,10.50
2017,04,02,12,14,10.50
2017,04,02,12,15,10.40
2017,04,02,12,16,10.30
2017,04,02,12,17,10.20
2017,04,02,12,18,10.20
2017,04,02,12,19,10.20
2017,04,02,12,20,10.20
2017,04,02,12,21,10.20
2017,04,02,12,22,10.20
2017,04,02,12,23,10.20
2017,04,02,12,24,10.30
2017,04,02,12,25,10.30
2017,04,02,12,26,10.20
2017,04,02,12,27,10.10
2017,04,02,12,28,10.10
2017,04,02,12,29,10.00
2017,04,02,12,30,10.00
2017,04,02,12,31,9.90
2017,04,02,12,32,9.90
2017,04,02,12,33,9.90
2017,04,02,12,34,9.90
2017,04,02,12,35,9.90
2017,04,02,12,36,9.90
2017,04,02,12,37,9.90
2017,04,02,12,38,9.90
2017,04,02,12,39,9.90
2017,04,02,12,40,9.80
2017,04,02,12,41,9.80
2017,04,02,12,42,9.80
2017,04,02,12,43,9.90
2017,04,02,12,44,9.90
2017,04,02,12,45,9.90
2017,04,02,12,46,10.00
2017,04,02,12,47,10.00
2017,04,02,12,48,10.00
2017,04,02,12,49,10.10
2017,04,02,12,50,10.00
2017,04,02,12,51,10.00
2017,04,02,12,52,10.00
2017,04,02,12,53,9.90
2017,04,02,12,54,9.90
2017,04,02,12,55,9.90
2017,04,02,12,56,9.80
2017,04,02,12,57,9.80
2017,04,02,12,58,9.90
2017,04,02,12,59,9.90
2017,04,02,13,00,9.90
2017,04,02,13,01,9.90
2017,04,02,13,02,9.90
2017,04,02,13,03,9.90
2017,04,02,13,04,10.00
2017,04,02,13,05,10.10
2017,04,02,13,06,10.20
2017,04,02,13,07,10.30
2017,04,02,13,08,10.40
2017,04,02,13,09,10.30
2017,04,02,13,10,10.40
2017,04,02,13,11,10.40
2017,04,02,13,12,10.40
2017,04,02,13,13,10.40
2017,04,02,13,14,10.50
2017,04,02,13,15,10.50
2017,04,02,13,16,10.50
2017,04,02,13,17,10.40
2017,04,02,13,18,10.40
2017,04,02,13,19,10.30
2017,04,02,13,20,10.30
2017,04,02,13,21,10.30
2017,04,02,13,22,10.20
2017,04,02,13,23,10.20
2017,04,02,13,24,10.20
2017,04,02,13,25,10.10
2017,04,02,13,26,10.10
2017,04,02,13,27,10.10
2017,04,02,13,28,10.10
2017,04,02,13,29,10.10
2017,04,02,13,30,10.20
2017,04,02,13,31,10.20
2017,04,02,13,32,10.20
2017,04,02,13,33,10.20
2017,04,02,13,34,10.20
2017,04,02,13,35,10.10
2017,04,02,13,36,10.10
2017,04,02,13,37,10.10
2017,04,02,13,38,10.10
2017,04,02,13,39,10.20
2017,04,02,13,40,10.20
2017,04,02,13,41,10.20
2017,04,02,13,42,10.20
2017,04,02,13,43,10.20
2017,04,02,13,44,10.20
2017,04,02,13,45,10.30
2017,04,02,13,46,10.30
2017,04,02,13,47,10.40
2017,04,02,13,48,10.50
2017,04,02,13,49,10.50
2017,04,02,13,50,10.60
2017,04,02,13,51,10.70
2017,04,02,13,52,10.70
2017,04,02,13,53,10.70
2017,04,02,13,54,10.70
2017,04,02,13,55,10.60
2017,04,02,13,56,10.60
2017,04,02,13,57,10.60
2017,04,02,13,58,10.60
2017,04,02,13,59,10.50
2017,04,02,14,00,10.60
2017,04,02,14,01,10.60
2017,04,02,14,02,10.60
2017,04,02,14,03,10.60
2017,04,02,14,04,10.50
2017,04,02,14,05,10.50
2017,04,02,14,06,10.40
2017,04,02,14,07,10.50
2017,04,02,14,08,10.50
2017,04,02,14,09,10.50
2017,04,02,14,10,10.50
2017,04,02,14,11,10.50
2017,04,02,14,12,10.50
2017,04,02,14,13,10.50
2017,04,02,14,14,10.50
2017,04,02,14,15,10.50
2017,04,02,14,16,10.50
2017,04,02,14,17,10.60
2017,04,02,14,18,10.60
2017,04,02,14,19,10.60
2017,04,02,14,20,10.60
2017,04,02,14,21,10.60
2017,04,02,14,22,10.60
2017,04,02,14,23,10.60
2017,04,02,14,24,10.60
2017,04,02,14,25,10.60
2017,04,02,14,26,10.60
2017,04,02,14,27,10.60
2017,04,02,14,28,10.50
2017,04,02,14,29,10.50
2017,04,02,14,30,10.50
2017,04,02,14,31,10.50
2017,04,02,14,32,10.50
2017,04,02,14,33,10.50
2017,04,02,14,34,10.40
2017,04,02,14,35,10.50
2017,04,02,14,36,10.50
2017,04,02,14,37,10.60
2017,04,02,14,38,10.60
2017,04,02,14,39,10.60
2017,04,02,14,40,10.60
2017,04,02,14,41,10.60
2017,04,02,14,42,10.60
2017,04,02,14,43,10.70
2017,04,02,14,44,10.70
2017,04,02,14,45,10.70
2017,04,02,14,46,10.70
2017,04,02,14,47,10.70
2017,04,02,14,48,10.60
2017,04,02,14,49,10.50
2017,04,02,14,50,10.50
2017,04,02,14,51,10.60
2017,04,02,14,52,10.60
2017,04,02,14,53,10.60
2017,04,02,14,54,10.60
2017,04,02,14,55,10.70
2017,04,02,14,56,10.70
2017,04,02,14,57,10.80
2017,04,02,14,58,10.80
2017,04,02,14,59,10.90
2017,04,02,15,00,10.90
2017,04,02,15,01,10.90
2017,04,02,15,02,10.80
2017,04,02,15,03,10.70
2017,04,02,15,04,10.70
2017,04,02,15,05,10.60
2017,04,02,15,06,10.60
2017,04,02,15,07,10.60
2017,04,02,15,08,10.60
2017,04,02,15,09,10.60
2017,04,02,15,10,10.70
2017,04,02,15,11,10.70
2017,04,02,15,12,10.80
2017,04,02,15,13,10.90
2017,04,02,15,14,11.00
2017,04,02,15,15,11.10
2017,04,02,15,16,11.20
2017,04,02,15,17,11.20
2017,04,02,15,18,11.20
2017,04,02,15,19,11.10
2017,04,02,15,20,11.10
2017,04,02,15,21,11.20
2017,04,02,15,22,11.20
2017,04,02,15,23,11.20
2017,04,02,15,24,11.30
2017,04,02,15,25,11.30
2017,04,02,15,26,11.30
2017,04,02,15,27,11.30
2017,04,02,15,28,11.30
2017,04,02,15,29,11.30
2017,04,02,15,30,11.30
2017,04,02,15,31,11.20
2017,04,02,15,32,11.20
2017,04,02,15,33,11.20
2017,04,02,15,34,11.10
2017,04,02,15,35,11.10
2017,04,02,15,36,11.00
2017,04,02,15,37,11.00
2017,04,02,15,38,10.90
2017,04,02,15,39,10.90
2017,04,02,15,40,10.80
2017,04,02,15,41,10.80
2017,04,02,15,42,10.80
2017,04,02,15,43,10.80
2017,04,02,15,44,10.70
2017,04,02,15,45,10.70
2017,04,02,15,46,10.60
2017,04,02,15,47,10.60
2017,04,02,15,48,10.60
2017,04,02,15,49,10.60
2017,04,02,15,50,10.60
2017,04,02,15,51,10.60
2017,04,02,15,52,10.70
2017,04,02,15,53,10.70
2017,04,02,15,54,10.70
2017,04,02,15,55,10.70
2017,04,02,15,56,10.70
2017,04,02,15,57,10.70
2017,04,02,15,58,10.70
2017,04,02,15,59,10.70
2017,04,02,16,00,10.60
2017,04,02,16,01,10.60
2017,04,02,16,02,10.60
2017,04,02,16,03,10.70
2017,04,02,16,04,10.70
2017,04,02,16,05,10.80
2017,04,02,16,06,10.80
2017,04,02,16,07,10.90
2017,04,02,16,08,11.00
2017,04,02,16,09,11.00
2017,04,02,16,10,11.10
2017,04,02,16,11,11.10
2017,04,02,16,12,11.10
2017,04,02,16,13,11.10
2017,04,02,16,14,11.00
2017,04,02,16,15,11.00
2017,04,02,16,16,10.90
2017,04,02,16,17,10.80
2017,04,02,16,18,10.70
2017,04,02,16,19,10.70
2017,04,02,16,20,10.60
2017,04,02,16,21,10.60
2017,04,02,16,22,10.60
2017,04,02,16,23,10.60
2017,04,02,16,24,10.60
2017,04,02,16,25,10.70
2017,04,02,16,26,10.70
2017,04,02,16,27,10.70
2017,04,02,16,28,10.70
2017,04,02,16,29,10.70
2017,04,02,16,30,10.70
2017,04,02,16,31,10.70
2017,04,02,16,32,10.70
2017,04,02,16,33,10.80
2017,04,02,16,34,10.80
2017,04,02,16,35,10.80
2017,04,02,16,36,10.80
2017,04,02,16,37,10.70
2017,04,02,16,38,10.80
2017,04,02,16,39,10.80
2017,04,02,16,40,10.90
2017,04,02,16,41,11.00
2017,04,02,16,42,11.00
2017,04,02,16,43,11.10
2017,04,02,16,44,11.10
2017,04,02,16,45,11.10
2017,04,02,16,46,11.20
2017,04,02,16,47,11.20
2017,04,02,16,48,11.20
2017,04,02,16,49,11.20
2017,04,02,16,50,11.30
2017,04,02,16,51,11.30
2017,04,02,16,52,11.30
2017,04,02,16,53,11.20
2017,04,02,16,54,11.20
2017,04,02,16,55,11.30
2017,04,02,16,56,11.30
2017,04,02,16,57,11.30
2017,04,02,16,58,11.40
2017,04,02,16,59,11.40
2017,04,02,17,00,11.50
2017,04,02,17,01,11.60
2017,04,02,17,02,11.60
2017,04,02,17,03,11.60
2017,04,02,17,04,11.50
2017,04,02,17,05,11.50
2017,04,02,17,06,11.50
2017,04,02,17,07,11.50
2017,04,02,17,08,11.50
2017,04,02,17,09,11.50
2017,04,02,17,10,11.50
2017,04,02,17,11,11.40
2017,04,02,17,12,11.40
2017,04,02,17,13,11.40
2017,04,02,17,14,11.40
2017,04,02,17,15,11.50
2017,04,02,17,16,11.60
2017,04,02,17,17,11.50
2017,04,02,17,18,11.40
2017,04,02,17,19,11.40
2017,04,02,17,20,11.40
2017,04,02,17,21,11.40
2017,04,02,17,22,11.40
2017,04,02,17,23,11.30
2017,04,02,17,24,11.30
2017,04,02,17,25,11.30
2017,04,02,17,26,11.30
2017,04,02,17,27,11.30
2017,04,02,17,28,11.30
2017,04,02,17,29,11.30
2017,04,02,17,30,11.30
2017,04,02,17,31,11.20
2017,04,02,17,32,11.10
2017,04,02,17,33,11.10
2017,04,02,17,34,11.00
2017,04,02,17,35,10.90
2017,04,02,17,36,10.80
2017,04,02,17,37,10.80
2017,04,02,17,38,10.70
2017,04,02,17,39,10.70
2017,04,02,17,40,10.70
2017,04,02,17,41,10.70
2017,04,02,17,42,10.60
2017,04,02,17,43,10.70
2017,04,02,17,44,10.70
2017,04,02,17,45,10.70
2017,04,02,17,46,10.70
2017,04,02,17,47,10.80
2017,04,02,17,48,10.80
2017,04,02,17,49,10.90
2017,04,02,17,50,10.90
2017,04,02,17,51,10.90
2017,04,02,17,52,11.00
2017,04,02,17,53,11.10
2017,04,02,17,54,11.00
2017,04,02,17,55,11.00
2017,04,02,17,56,11.00
2017,04,02,17,57,10.90
2017,04,02,17,58,10.90
2017,04,02,17,59,10.90
2017,04,02,18,00,10.90
2017,04,02,18,01,10.90
2017,04,02,18,02,10.90
2017,04,02,18,03,10.90
2017,04,02,18,04,10.90
2017,04,02,18,05,10.90
2017,04,02,18,06,10.80
2017,04,02,18,07,10.80
2017,04,02,18,08,10.80
2017,04,02,18,09,10.90
2017,04,02,18,10,10.90
2017,04,02,18,11,10.90
2017,04,02,18,12,10.90
2017,04,02,18,13,11.00
2017,04,02,18,14,11.00
2017,04,02,18,15,11.00
2017,04,02,18,16,11.00
2017,04,02,18,17,10.90
2017,04,02,18,18,10.90
2017,04,02,18,19,10.90
2017,04,02,18,20,10.90
2017,04,02,18,21,10.90
2017,04,02,18,22,10.90
2017,04,02,18,23,10.90
2017,04,02,18,24,10.90
2017,04,02,18,25,10.90
2017,04,02,18,26,10.90
2017,04,02,18,27,10.90
2017,04,02,18,28,10.90
2017,04,02,18,29,10.90
2017,04,02,18,30,10.90
2017,04,02,18,31,10.80
2017,04,02,18,32,10.80
2017,04,02,18,33,10.70
2017,04,02,18,34,10.70
2017,04,02,18,35,10.60
2017,04,02,18,36,10.50
2017,04,02,18,37,10.50
2017,04,02,18,38,10.50
2017,04,02,18,39,10.40
2017,04,02,18,40,10.40
2017,04,02,18,41,10.40
2017,04,02,18,42,10.40
2017,04,02,18,43,10.40
2017,04,02,18,44,10.40
2017,04,02,18,45,10.30
2017,04,02,18,46,10.30
2017,04,02,18,47,10.20
2017,04,02,18,48,10.20
2017,04,02,18,49,10.20
2017,04,02,18,50,10.10
2017,04,02,18,51,10.10
2017,04,02,18,52,10.10
2017,04,02,18,53,10.00
2017,04,02,18,54,9.90
2017,04,02,18,55,9.90
2017,04,02,18,56,9.90
2017,04,02,18,57,9.80
2017,04,02,18,58,9.80
2017,04,02,18,59,9.80
2017,04,02,19,00,9.80
2017,04,02,19,01,9.70
2017,04,02,19,02,9.70
2017,04,02,19,03,9.70
2017,04,02,19,04,9.60
2017,04,02,19,05,9.60
2017,04,02,19,06,9.60
2017,04,02,19,07,9.50
2017,04,02,19,08,9.50
2017,04,02,19,09,9.50
2017,04,02,19,10,9.40
2017,04,02,19,11,9.40
2017,04,02,19,12,9.40
2017,04,02,19,13,9.30
2017,04,02,19,14,9.30
2017,04,02,19,15,9.30
2017,04,02,19,16,9.20
2017,04,02,19,17,9.20
2017,04,02,19,18,9.20
2017,04,02,19,19,9.10
2017,04,02,19,20,9.10
2017,04,02,19,21,9.10
2017,04,02,19,22,9.10
2017,04,02,19,23,9.00
2017,04,02,19,24,9.00
2017,04,02,19,25,8.90
2017,04,02,19,26,8.90
2017,04,02,19,27,8.90
2017,04,02,19,28,8.80
2017,04,02,19,29,8.80
2017,04,02,19,30,8.80
2017,04,02,19,31,8.80
2017,04,02,19,32,8.70
2017,04,02,19,33,8.70
2017,04,02,19,34,8.70
2017,04,02,19,35,8.70
2017,04,02,19,36,8.70
2017,04,02,19,37,8.70
2017,04,02,19,38,8.70
2017,04,02,19,39,8.60
2017,04,02,19,40,8.60
2017,04,02,19,41,8.60
2017,04,02,19,42,8.60
2017,04,02,19,43,8.60
2017,04,02,19,44,8.50
2017,04,02,19,45,8.50
2017,04,02,19,46,8.40
2017,04,02,19,47,8.40
2017,04,02,19,48,8.30
2017,04,02,19,49,8.30
2017,04,02,19,50,8.20
2017,04,02,19,51,8.20
2017,04,02,19,52,8.20
2017,04,02,19,53,8.10
2017,04,02,19,54,8.10
2017,04,02,19,55,8.00
2017,04,02,19,56,7.90
2017,04,02,19,57,7.90
2017,04,02,19,58,7.90
2017,04,02,19,59,7.90
2017,04,02,20,00,7.80
2017,04,02,20,01,7.80
2017,04,02,20,02,7.80
2017,04,02,20,03,7.80
2017,04,02,20,04,7.70
2017,04,02,20,05,7.70
2017,04,02,20,06,7.70
2017,04,02,20,07,7.70
2017,04,02,20,08,7.60
2017,04,02,20,09,7.60
2017,04,02,20,10,7.60
2017,04,02,20,11,7.60
2017,04,02,20,12,7.60
2017,04,02,20,13,7.60
2017,04,02,20,14,7.60
2017,04,02,20,15,7.50
2017,04,02,20,16,7.50
2017,04,02,20,17,7.40
2017,04,02,20,18,7.40
2017,04,02,20,19,7.40
2017,04,02,20,20,7.30
2017,04,02,20,21,7.30
2017,04,02,20,22,7.30
2017,04,02,20,23,7.20
2017,04,02,20,24,7.20
2017,04,02,20,25,7.10
2017,04,02,20,26,7.10
2017,04,02,20,27,7.10
2017,04,02,20,28,7.00
2017,04,02,20,29,6.90
2017,04,02,20,30,6.90
2017,04,02,20,31,6.90
2017,04,02,20,32,6.90
2017,04,02,20,33,6.80
2017,04,02,20,34,6.80
2017,04,02,20,35,6.70
2017,04,02,20,36,6.70
2017,04,02,20,37,6.60
2017,04,02,20,38,6.60
2017,04,02,20,39,6.50
2017,04,02,20,40,6.50
2017,04,02,20,41,6.40
2017,04,02,20,42,6.30
2017,04,02,20,43,6.30
2017,04,02,20,44,6.30
2017,04,02,20,45,6.20
2017,04,02,20,46,6.20
2017,04,02,20,47,6.20
2017,04,02,20,48,6.10
2017,04,02,20,49,6.10
2017,04,02,20,50,6.10
2017,04,02,20,51,6.10
2017,04,02,20,52,6.00
2017,04,02,20,53,6.00
2017,04,02,20,54,6.00
2017,04,02,20,55,5.90
2017,04,02,20,56,5.90
2017,04,02,20,57,5.90
2017,04,02,20,58,5.90
2017,04,02,20,59,5.90
2017,04,02,21,00,5.90
2017,04,02,21,01,5.90
2017,04,02,21,02,6.00
2017,04,02,21,03,6.00
2017,04,02,21,04,6.00
2017,04,02,21,05,6.00
2017,04,02,21,06,6.00
2017,04,02,21,07,6.10
2017,04,02,21,08,6.10
2017,04,02,21,09,6.10
2017,04,02,21,10,6.10
2017,04,02,21,11,6.10
2017,04,02,21,12,6.20
2017,04,02,21,13,6.20
2017,04,02,21,14,6.20
2017,04,02,21,15,6.20
2017,04,02,21,16,6.30
2017,04,02,21,17,6.30
2017,04,02,21,18,6.40
2017,04,02,21,19,6.50
2017,04,02,21,20,6.60
2017,04,02,21,21,6.70
2017,04,02,21,22,6.80
2017,04,02,21,23,6.90
2017,04,02,21,24,7.00
2017,04,02,21,25,7.10
2017,04,02,21,26,7.20
2017,04,02,21,27,7.30
2017,04,02,21,28,7.40
2017,04,02,21,29,7.40
2017,04,02,21,30,7.50
2017,04,02,21,31,7.60
2017,04,02,21,32,7.70
2017,04,02,21,33,7.70
2017,04,02,21,34,7.70
2017,04,02,21,35,7.80
2017,04,02,21,36,7.80
2017,04,02,21,37,7.80
2017,04,02,21,38,7.80
2017,04,02,21,39,7.80
2017,04,02,21,40,7.80
2017,04,02,21,41,7.90
2017,04,02,21,42,7.90
2017,04,02,21,43,7.90
2017,04,02,21,44,7.90
2017,04,02,21,45,7.90
2017,04,02,21,46,7.90
2017,04,02,21,47,7.90
2017,04,02,21,48,7.90
2017,04,02,21,49,7.90
2017,04,02,21,50,7.90
2017,04,02,21,51,7.90
2017,04,02,21,52,7.90
2017,04,02,21,53,7.90
2017,04,02,21,54,7.90
2017,04,02,21,55,7.90
2017,04,02,21,56,7.90
2017,04,02,21,57,7.90
2017,04,02,21,58,7.90
2017,04,02,21,59,7.90
2017,04,02,22,00,7.80
2017,04,02,22,01,7.80
2017,04,02,22,02,7.80
2017,04,02,22,03,7.80
2017,04,02,22,04,7.80
2017,04,02,22,05,7.80
2017,04,02,22,06,7.80
2017,04,02,22,07,7.80
2017,04,02,22,08,7.80
2017,04,02,22,09,7.70
2017,04,02,22,10,7.70
2017,04,02,22,11,7.70
2017,04,02,22,12,7.70
2017,04,02,22,13,7.60
2017,04,02,22,14,7.60
2017,04,02,22,15,7.60
2017,04,02,22,16,7.50
2017,04,02,22,17,7.50
2017,04,02,22,18,7.50
2017,04,02,22,19,7.40
2017,04,02,22,20,7.40
2017,04,02,22,21,7.40
2017,04,02,22,22,7.30
2017,04,02,22,23,7.30
2017,04,02,22,24,7.30
2017,04,02,22,25,7.30
2017,04,02,22,26,7.30
2017,04,02,22,27,7.20
2017,04,02,22,28,7.30
2017,04,02,22,29,7.30
2017,04,02,22,30,7.30
2017,04,02,22,31,7.30
2017,04,02,22,32,7.30
2017,04,02,22,33,7.30
2017,04,02,22,34,7.30
2017,04,02,22,35,7.30
2017,04,02,22,36,7.30
2017,04,02,22,37,7.30
2017,04,02,22,38,7.30
2017,04,02,22,39,7.30
2017,04,02,22,40,7.30
2017,04,02,22,41,7.30
2017,04,02,22,42,7.30
2017,04,02,22,43,7.30
2017,04,02,22,44,7.30
2017,04,02,22,45,7.30
2017,04,02,22,46,7.30
2017,04,02,22,47,7.30
2017,04,02,22,48,7.30
2017,04,02,22,49,7.20
2017,04,02,22,50,7.20
2017,04,02,22,51,7.20
2017,04,02,22,52,7.20
2017,04,02,22,53,7.20
2017,04,02,22,54,7.20
2017,04,02,22,55,7.20
2017,04,02,22,56,7.20
2017,04,02,22,57,7.20
2017,04,02,22,58,7.20
2017,04,02,22,59,7.20
2017,04,02,23,00,7.20
2017,04,02,23,01,7.10
2017,04,02,23,02,7.10
2017,04,02,23,03,7.10
2017,04,02,23,04,7.10
2017,04,02,23,05,7.10
2017,04,02,23,06,7.10
2017,04,02,23,07,7.10
2017,04,02,23,08,7.10
2017,04,02,23,09,7.10
2017,04,02,23,10,7.10
2017,04,02,23,11,7.10
2017,04,02,23,12,7.10
2017,04,02,23,13,7.10
2017,04,02,23,14,7.10
2017,04,02,23,15,7.10
2017,04,02,23,16,7.10
2017,04,02,23,17,7.10
2017,04,02,23,18,7.10
2017,04,02,23,19,7.10
2017,04,02,23,20,7.10
2017,04,02,23,21,7.10
2017,04,02,23,22,7.10
2017,04,02,23,23,7.10
2017,04,02,23,24,7.10
2017,04,02,23,25,7.10
2017,04,02,23,26,7.10
2017,04,02,23,27,7.10
2017,04,02,23,28,7.10
2017,04,02,23,29,7.10
2017,04,02,23,30,7.10
2017,04,02,23,31,7.10
2017,04,02,23,32,7.00
2017,04,02,23,33,7.00
2017,04,02,23,34,7.00
2017,04,02,23,35,6.90
2017,04,02,23,36,6.90
2017,04,02,23,37,6.90
2017,04,02,23,38,6.90
2017,04,02,23,39,6.90
2017,04,02,23,40,6.90
2017,04,02,23,41,6.90
2017,04,02,23,42,6.90
2017,04,02,23,43,6.90
2017,04,02,23,44,6.90
2017,04,02,23,45,6.90
2017,04,02,23,46,6.90
2017,04,02,23,47,6.90
2017,04,02,23,48,6.90
2017,04,02,23,49,6.90
2017,04,02,23,50,6.90
2017,04,02,23,51,6.80
2017,04,02,23,52,6.80
2017,04,02,23,53,6.80
2017,04,02,23,54,6.80
2017,04,02,23,55,6.80
2017,04,02,23,56,6.70
2017,04,02,23,57,6.70
2017,04,02,23,58,6.70
2017,04,02,23,59,6.70
